Time,TemperatureF,DewpointF,PressureIn,WindDirection,WindDirectionDegrees,WindSpeedMPH,WindSpeedGustMPH,Humidity,HourlyPrecipIn,Conditions,Clouds,dailyrainin,SoftwareType,DateUTC
2013-03-18 00:02:00,35.8,35.3,30.00,ESE,112,1.7,-999.0,98,-99.99,,,0.02,Acu-Link.com,2013-03-18 04:02:00,
2013-03-18 00:17:00,35.8,35.3,30.00,West,270,2.7,-999.0,98,-99.99,,,0.04,Acu-Link.com,2013-03-18 04:17:00,
2013-03-18 00:32:00,35.8,35.3,30.01,SSW,202,1.1,-999.0,98,-99.99,,,0.05,Acu-Link.com,2013-03-18 04:32:00,
2013-03-18 00:47:00,35.8,35.3,30.01,NNE,22,0.0,-999.0,98,-99.99,,,0.05,Acu-Link.com,2013-03-18 04:47:00,
2013-03-18 01:02:00,35.6,35.1,30.01,NE,45,3.7,-999.0,98,-99.99,,,0.07,Acu-Link.com,2013-03-18 05:02:00,
2013-03-18 01:18:00,35.6,35.1,30.01,ENE,67,0.0,-999.0,98,-99.99,,,0.08,Acu-Link.com,2013-03-18 05:18:00,
2013-03-18 01:33:00,35.6,35.1,30.00,NNE,22,2.2,-999.0,98,-99.99,,,0.08,Acu-Link.com,2013-03-18 05:33:00,
2013-03-18 01:48:00,35.6,35.1,29.98,West,270,0.0,-999.0,98,-99.99,,,0.08,Acu-Link.com,2013-03-18 05:48:00,
2013-03-18 02:03:00,35.4,34.9,29.99,WSW,247,0.0,-999.0,98,-99.99,,,0.08,Acu-Link.com,2013-03-18 06:03:00,
2013-03-18 02:18:00,35.2,34.7,29.99,SSE,157,1.1,-999.0,98,-99.99,,,0.09,Acu-Link.com,2013-03-18 06:18:00,
2013-03-18 02:33:00,34.9,34.4,30.00,ESE,112,1.7,-999.0,98,-99.99,,,0.09,Acu-Link.com,2013-03-18 06:33:00,
2013-03-18 02:48:00,34.7,34.2,30.01,SSW,202,1.7,-999.0,98,-99.99,,,0.09,Acu-Link.com,2013-03-18 06:48:00,
2013-03-18 03:03:00,34.7,34.2,30.01,ESE,112,0.0,-999.0,98,-99.99,,,0.09,Acu-Link.com,2013-03-18 07:03:00,
2013-03-18 03:18:00,34.5,34.0,30.00,West,270,1.1,-999.0,98,-99.99,,,0.10,Acu-Link.com,2013-03-18 07:18:00,
2013-03-18 03:33:00,34.3,33.8,30.00,West,270,0.0,-999.0,98,-99.99,,,0.10,Acu-Link.com,2013-03-18 07:33:00,
2013-03-18 03:49:00,34.3,33.8,29.98,West,270,1.7,-999.0,98,-99.99,,,0.10,Acu-Link.com,2013-03-18 07:49:00,
2013-03-18 04:04:00,34.2,33.7,29.97,SSW,202,0.0,-999.0,98,-99.99,,,0.11,Acu-Link.com,2013-03-18 08:04:00,
2013-03-18 04:19:00,34.3,33.8,29.99,ESE,112,0.0,-999.0,98,-99.99,,,0.11,Acu-Link.com,2013-03-18 08:19:00,
2013-03-18 04:34:00,34.2,33.7,29.99,East,90,2.2,-999.0,98,-99.99,,,0.11,Acu-Link.com,2013-03-18 08:34:00,
2013-03-18 04:49:00,34.2,33.7,29.99,South,180,2.2,-999.0,98,-99.99,,,0.11,Acu-Link.com,2013-03-18 08:49:00,
2013-03-18 05:04:00,34.0,33.5,30.00,SW,225,0.0,-999.0,98,-99.99,,,0.11,Acu-Link.com,2013-03-18 09:04:00,
2013-03-18 05:19:00,33.8,33.3,30.00,SSE,157,0.0,-999.0,98,-99.99,,,0.12,Acu-Link.com,2013-03-18 09:19:00,
2013-03-18 05:34:00,33.8,33.3,30.00,SW,225,0.0,-999.0,98,-99.99,,,0.12,Acu-Link.com,2013-03-18 09:34:00,
2013-03-18 05:49:00,33.6,33.1,30.00,SW,225,1.7,-999.0,98,-99.99,,,0.12,Acu-Link.com,2013-03-18 09:49:00,
2013-03-18 06:05:00,33.6,33.1,29.98,ESE,112,0.0,-999.0,98,-99.99,,,0.12,Acu-Link.com,2013-03-18 10:05:00,
2013-03-18 06:20:00,33.6,33.1,29.99,ENE,67,0.0,-999.0,98,-99.99,,,0.12,Acu-Link.com,2013-03-18 10:20:00,
2013-03-18 06:35:00,33.4,32.9,30.00,ESE,112,0.0,-999.0,98,-99.99,,,0.12,Acu-Link.com,2013-03-18 10:35:00,
2013-03-18 06:50:00,33.4,32.9,30.01,NW,315,0.0,-999.0,98,-99.99,,,0.12,Acu-Link.com,2013-03-18 10:50:00,
2013-03-18 07:05:00,33.4,32.9,30.02,ENE,67,0.0,-999.0,98,-99.99,,,0.12,Acu-Link.com,2013-03-18 11:05:00,
2013-03-18 07:20:00,33.3,32.8,30.03,East,90,1.7,-999.0,98,-99.99,,,0.13,Acu-Link.com,2013-03-18 11:20:00,
2013-03-18 07:35:00,33.3,32.8,30.03,ESE,112,2.7,-999.0,98,-99.99,,,0.13,Acu-Link.com,2013-03-18 11:35:00,
2013-03-18 07:50:00,32.9,32.4,30.02,NNE,22,2.7,-999.0,98,-99.99,,,0.13,Acu-Link.com,2013-03-18 11:50:00,
2013-03-18 08:05:00,32.7,32.2,30.00,SE,135,4.2,-999.0,98,-99.99,,,0.13,Acu-Link.com,2013-03-18 12:05:00,
2013-03-18 08:21:00,32.7,32.2,29.99,West,270,4.7,-999.0,98,-99.99,,,0.13,Acu-Link.com,2013-03-18 12:21:00,
2013-03-18 08:36:00,32.5,32.0,30.00,East,90,2.7,-999.0,98,-99.99,,,0.13,Acu-Link.com,2013-03-18 12:36:00,
2013-03-18 09:21:00,32.5,32.0,30.01,East,90,1.7,-999.0,98,-99.99,,,0.13,Acu-Link.com,2013-03-18 13:21:00,
2013-03-18 09:36:00,32.7,32.2,30.01,North,0,5.3,-999.0,98,-99.99,,,0.13,Acu-Link.com,2013-03-18 13:36:00,
2013-03-18 09:51:00,32.9,32.4,30.01,NW,315,0.0,-999.0,98,-99.99,,,0.13,Acu-Link.com,2013-03-18 13:51:00,
2013-03-18 10:06:00,32.9,32.4,29.99,West,270,4.2,-999.0,98,-99.99,,,0.13,Acu-Link.com,2013-03-18 14:06:00,
2013-03-18 10:22:00,33.3,32.8,29.96,ENE,67,2.7,-999.0,98,-99.99,,,0.13,Acu-Link.com,2013-03-18 14:22:00,
2013-03-18 10:37:00,33.4,32.9,29.97,South,180,4.2,-999.0,98,-99.99,,,0.13,Acu-Link.com,2013-03-18 14:37:00,
2013-03-18 10:52:00,33.6,33.1,29.97,SW,225,1.1,-999.0,98,-99.99,,,0.13,Acu-Link.com,2013-03-18 14:52:00,
2013-03-18 11:22:00,33.4,32.9,29.99,ESE,112,4.7,-999.0,98,-99.99,,,0.14,Acu-Link.com,2013-03-18 15:22:00,
2013-03-18 11:37:00,33.8,33.3,29.98,ESE,112,3.7,-999.0,98,-99.99,,,0.14,Acu-Link.com,2013-03-18 15:37:00,
2013-03-18 11:52:00,34.0,33.5,29.99,WNW,292,2.7,-999.0,98,-99.99,,,0.14,Acu-Link.com,2013-03-18 15:52:00,
2013-03-18 12:07:00,34.7,34.2,29.96,ESE,112,3.7,-999.0,98,-99.99,,,0.14,Acu-Link.com,2013-03-18 16:07:00,
2013-03-18 12:23:00,35.8,35.3,29.94,ESE,112,2.7,-999.0,98,-99.99,,,0.14,Acu-Link.com,2013-03-18 16:23:00,
2013-03-18 12:38:00,34.5,34.0,29.92,NNW,337,0.0,-999.0,98,-99.99,,,0.14,Acu-Link.com,2013-03-18 16:38:00,
2013-03-18 12:53:00,35.2,34.7,29.92,South,180,3.2,-999.0,98,-99.99,,,0.14,Acu-Link.com,2013-03-18 16:53:00,
2013-03-18 13:08:00,35.2,34.7,29.91,SSW,202,3.7,-999.0,98,-99.99,,,0.14,Acu-Link.com,2013-03-18 17:08:00,
2013-03-18 13:23:00,35.4,34.9,29.91,SE,135,3.7,-999.0,98,-99.99,,,0.14,Acu-Link.com,2013-03-18 17:23:00,
2013-03-18 13:38:00,35.1,34.6,29.92,SE,135,2.2,-999.0,98,-99.99,,,0.14,Acu-Link.com,2013-03-18 17:38:00,
2013-03-18 13:53:00,35.1,34.6,29.92,ENE,67,2.2,-999.0,98,-99.99,,,0.14,Acu-Link.com,2013-03-18 17:53:00,
2013-03-18 14:08:00,35.4,34.9,29.90,ENE,67,1.7,-999.0,98,-99.99,,,0.14,Acu-Link.com,2013-03-18 18:08:00,
2013-03-18 14:24:00,36.0,35.5,29.88,South,180,0.0,-999.0,98,-99.99,,,0.14,Acu-Link.com,2013-03-18 18:24:00,
2013-03-18 14:39:00,36.0,35.5,29.85,ESE,112,1.7,-999.0,98,-99.99,,,0.14,Acu-Link.com,2013-03-18 18:39:00,
2013-03-18 14:54:00,36.3,35.8,29.85,SSE,157,2.7,-999.0,98,-99.99,,,0.14,Acu-Link.com,2013-03-18 18:54:00,
2013-03-18 15:09:00,36.5,36.0,29.84,ESE,112,0.0,-999.0,98,-99.99,,,0.14,Acu-Link.com,2013-03-18 19:09:00,
2013-03-18 15:24:00,36.3,35.8,29.85,WNW,292,1.1,-999.0,98,-99.99,,,0.14,Acu-Link.com,2013-03-18 19:24:00,
2013-03-18 15:39:00,35.8,35.3,29.84,West,270,0.0,-999.0,98,-99.99,,,0.14,Acu-Link.com,2013-03-18 19:39:00,
2013-03-18 15:54:00,35.2,34.7,29.86,WSW,247,0.0,-999.0,98,-99.99,,,0.14,Acu-Link.com,2013-03-18 19:54:00,
2013-03-18 16:09:00,35.6,35.1,29.85,ENE,67,2.2,-999.0,98,-99.99,,,0.14,Acu-Link.com,2013-03-18 20:09:00,
2013-03-18 16:24:00,35.1,34.6,29.84,South,180,1.1,-999.0,98,-99.99,,,0.15,Acu-Link.com,2013-03-18 20:24:00,
2013-03-18 16:39:00,35.1,34.6,29.84,SSW,202,0.0,-999.0,98,-99.99,,,0.16,Acu-Link.com,2013-03-18 20:39:00,
2013-03-18 16:55:00,34.7,34.2,29.82,West,270,0.0,-999.0,98,-99.99,,,0.17,Acu-Link.com,2013-03-18 20:55:00,
2013-03-18 17:10:00,34.9,34.4,29.83,NNE,22,0.0,-999.0,98,-99.99,,,0.17,Acu-Link.com,2013-03-18 21:10:00,
2013-03-18 17:25:00,35.1,34.6,29.79,NE,45,3.2,-999.0,98,-99.99,,,0.18,Acu-Link.com,2013-03-18 21:25:00,
2013-03-18 17:40:00,35.1,34.6,29.79,South,180,0.0,-999.0,98,-99.99,,,0.19,Acu-Link.com,2013-03-18 21:40:00,
2013-03-18 17:55:00,35.1,34.6,29.78,SW,225,1.7,-999.0,98,-99.99,,,0.22,Acu-Link.com,2013-03-18 21:55:00,
2013-03-18 18:10:00,34.9,34.4,29.78,SW,225,0.0,-999.0,98,-99.99,,,0.24,Acu-Link.com,2013-03-18 22:10:00,
2013-03-18 18:25:00,34.3,33.8,29.80,West,270,0.0,-999.0,98,-99.99,,,0.26,Acu-Link.com,2013-03-18 22:25:00,
2013-03-18 18:40:00,34.5,34.0,29.81,WSW,247,0.0,-999.0,98,-99.99,,,0.27,Acu-Link.com,2013-03-18 22:40:00,
2013-03-18 18:55:00,34.3,33.8,29.81,SSE,157,2.2,-999.0,98,-99.99,,,0.28,Acu-Link.com,2013-03-18 22:55:00,
2013-03-18 19:11:00,34.2,33.7,29.79,West,270,0.0,-999.0,98,-99.99,,,0.28,Acu-Link.com,2013-03-18 23:11:00,
2013-03-18 20:26:00,33.8,33.3,29.77,NW,315,1.1,-999.0,98,-99.99,,,0.29,Acu-Link.com,2013-03-19 00:26:00,
2013-03-18 20:56:00,32.9,32.4,29.70,ESE,112,2.2,-999.0,98,-99.99,,,0.29,Acu-Link.com,2013-03-19 00:56:00,
2013-03-18 21:11:00,32.9,32.4,29.71,West,270,3.2,-999.0,98,-99.99,,,0.29,Acu-Link.com,2013-03-19 01:11:00,
2013-03-18 21:27:00,33.3,32.8,29.72,NW,315,0.0,-999.0,98,-99.99,,,0.29,Acu-Link.com,2013-03-19 01:27:00,
2013-03-18 21:42:00,33.3,32.8,29.72,West,270,3.7,-999.0,98,-99.99,,,0.29,Acu-Link.com,2013-03-19 01:42:00,
2013-03-18 21:57:00,33.3,32.8,29.70,WSW,247,2.2,-999.0,98,-99.99,,,0.29,Acu-Link.com,2013-03-19 01:57:00,
2013-03-18 22:27:00,33.4,32.9,29.73,WSW,247,1.1,-999.0,98,-99.99,,,0.29,Acu-Link.com,2013-03-19 02:27:00,
2013-03-18 22:42:00,33.4,32.9,29.71,South,180,1.1,-999.0,98,-99.99,,,0.29,Acu-Link.com,2013-03-19 02:42:00,
2013-03-18 22:57:00,33.4,32.9,29.68,NE,45,0.0,-999.0,98,-99.99,,,0.29,Acu-Link.com,2013-03-19 02:57:00,
2013-03-18 23:12:00,33.4,32.9,29.68,NNE,22,0.0,-999.0,98,-99.99,,,0.29,Acu-Link.com,2013-03-19 03:12:00,
2013-03-18 23:27:00,33.6,33.1,29.70,WNW,292,0.0,-999.0,98,-99.99,,,0.29,Acu-Link.com,2013-03-19 03:27:00,
2013-03-18 23:43:00,33.8,33.3,29.69,WSW,247,0.0,-999.0,98,-99.99,,,0.29,Acu-Link.com,2013-03-19 03:43:00,
2013-03-18 23:58:00,33.8,33.3,29.71,NW,315,0.0,-999.0,98,-99.99,,,0.29,Acu-Link.com,2013-03-19 03:58:00,